| time (UTC) | temp F | wind direction | speed knots | gust knots | rain 1hr in | rain 24hr in | rain mn in | humidity % | barometer mb |
| 20260906215308 | 101 | 0 | 7.8 | 12.2 | 0.00 | 0.00 | 0.00 | 30 | 1010.4 |
| 20260906214802 | 101 | 0 | 7.0 | 12.2 | 0.00 | 0.00 | 0.00 | 29 | 1010.5 |
| 20260906214255 | 102 | 0 | 7.8 | 12.2 | 0.00 | 0.00 | 0.00 | 29 | 1010.6 |
| 20260906213749 | 102 | 0 | 8.7 | 15.6 | 0.00 | 0.00 | 0.00 | 29 | 1010.7 |
| 20260906213244 | 102 | 0 | 8.7 | 15.6 | 0.00 | 0.00 | 0.00 | 29 | 1010.7 |
| 20260906212738 | 102 | 0 | 8.7 | 13.9 | 0.00 | 0.00 | 0.00 | 29 | 1010.8 |
| 20260906212231 | 102 | 0 | 7.8 | 14.8 | 0.00 | 0.00 | 0.00 | 29 | 1010.8 |
| 20260906211726 | 102 | 0 | 8.7 | 13.9 | 0.00 | 0.00 | 0.00 | 29 | 1011.0 |
| 20260906211219 | 102 | 0 | 8.7 | 13.0 | 0.00 | 0.00 | 0.00 | 29 | 1011.0 |
| 20260906210713 | 102 | 0 | 7.8 | 13.0 | 0.00 | 0.00 | 0.00 | 30 | 1011.1 |
| 20260906210207 | 102 | 0 | 7.8 | 13.0 | 0.00 | 0.00 | 0.00 | 29 | 1011.1 |
| 20260906205701 | 102 | 0 | 8.7 | 13.0 | 0.00 | 0.00 | 0.00 | 29 | 1011.2 |
| 20260906204649 | 103 | 0 | 7.8 | 14.8 | 0.00 | 0.00 | 0.00 | 29 | 1011.2 |
| 20260906204144 | 103 | 0 | 9.6 | 14.8 | 0.00 | 0.00 | 0.00 | 29 | 1011.3 |
| 20260906203638 | 102 | 0 | 7.0 | 14.8 | 0.00 | 0.00 | 0.00 | 30 | 1011.3 |
| 20260906203131 | 102 | 0 | 4.3 | 10.4 | 0.00 | 0.00 | 0.00 | 29 | 1011.4 |
| 20260906202626 | 102 | 0 | 6.1 | 13.0 | 0.00 | 0.00 | 0.00 | 29 | 1011.5 |
| 20260906202119 | 102 | 0 | 7.8 | 13.9 | 0.00 | 0.00 | 0.00 | 29 | 1011.7 |
| 20260906201614 | 102 | 0 | 8.7 | 14.8 | 0.00 | 0.00 | 0.00 | 30 | 1011.7 |
| 20260906201108 | 102 | 0 | 8.7 | 14.8 | 0.00 | 0.00 | 0.00 | 29 | 1011.7 |
| 20260906200609 | 102 | 0 | 7.8 | 14.8 | 0.00 | 0.00 | 0.00 | 29 | 1011.8 |
| 20260906200107 | 102 | 0 | 7.8 | 13.0 | 0.00 | 0.00 | 0.00 | 29 | 1011.8 |
| 20260906195609 | 102 | 0 | 7.8 | 14.8 | 0.00 | 0.00 | 0.00 | 30 | 1011.9 |
| 20260906195107 | 101 | 0 | 7.8 | 14.8 | 0.00 | 0.00 | 0.00 | 30 | 1012.0 |
| 20260906194108 | 101 | 0 | 8.7 | 16.5 | 0.00 | 0.00 | 0.00 | 31 | 1012.0 |
| 20260906193607 | 101 | 0 | 7.8 | 16.5 | 0.00 | 0.00 | 0.00 | 30 | 1012.0 |
| 20260906193106 | 101 | 0 | 6.1 | 12.2 | 0.00 | 0.00 | 0.00 | 31 | 1012.1 |
| 20260906192608 | 101 | 0 | 7.0 | 13.0 | 0.00 | 0.00 | 0.00 | 31 | 1012.2 |
| 20260906192106 | 102 | 0 | 7.0 | 13.0 | 0.00 | 0.00 | 0.00 | 31 | 1012.3 |
| 20260906191603 | 102 | 0 | 5.2 | 9.6 | 0.00 | 0.00 | 0.00 | 31 | 1012.2 |
| 20260906191102 | 102 | 0 | 6.1 | 12.2 | 0.00 | 0.00 | 0.00 | 31 | 1012.3 |
| 20260906190117 | 102 | 0 | 7.8 | 14.8 | 0.00 | 0.00 | 0.00 | 32 | 1012.5 |
| 20260906185603 | 102 | 0 | 6.1 | 14.8 | 0.00 | 0.00 | 0.00 | 32 | 1012.5 |
| 20260906185105 | 102 | 0 | 6.1 | 10.4 | 0.00 | 0.00 | 0.00 | 31 | 1012.6 |
| 20260906184559 | 102 | 0 | 6.1 | 10.4 | 0.00 | 0.00 | 0.00 | 31 | 1012.7 |
| 20260906184053 | 101 | 0 | 6.1 | 13.0 | 0.00 | 0.00 | 0.00 | 32 | 1012.7 |
| 20260906183547 | 101 | 0 | 7.0 | 13.0 | 0.00 | 0.00 | 0.00 | 32 | 1012.9 |
| 20260906182538 | 101 | 0 | 6.1 | 11.3 | 0.00 | 0.00 | 0.00 | 33 | 1013.0 |
| 20260906182036 | 101 | 0 | 7.0 | 13.9 | 0.00 | 0.00 | 0.00 | 33 | 1013.1 |
| 20260906181538 | 100 | 0 | 5.2 | 13.9 | 0.00 | 0.00 | 0.00 | 34 | 1013.2 |
| 20260906181037 | 100 | 0 | 4.3 | 12.2 | 0.00 | 0.00 | 0.00 | 35 | 1013.2 |
| 20260906180536 | 100 | 0 | 5.2 | 11.3 | 0.00 | 0.00 | 0.00 | 34 | 1013.3 |
| 20260906180038 | 100 | 0 | 5.2 | 10.4 | 0.00 | 0.00 | 0.00 | 35 | 1013.4 |
| 20260906175038 | 99 | 0 | 8.7 | 15.6 | 0.00 | 0.00 | 0.00 | 35 | 1013.5 |
| 20260906174538 | 99 | 0 | 6.1 | 15.6 | 0.00 | 0.00 | 0.00 | 36 | 1013.5 |
| 20260906173534 | 97 | 0 | 2.6 | 7.8 | 0.00 | 0.00 | 0.00 | 39 | 1013.6 |
| 20260906173034 | 97 | 0 | 3.5 | 7.8 | 0.00 | 0.00 | 0.00 | 39 | 1013.7 |
| 20260906172533 | 97 | 0 | 2.6 | 7.8 | 0.00 | 0.00 | 0.00 | 39 | 1013.7 |
| 20260906172032 | 96 | 0 | 3.5 | 9.6 | 0.00 | 0.00 | 0.00 | 39 | 1013.7 |
| 20260906171532 | 96 | 0 | 5.2 | 10.4 | 0.00 | 0.00 | 0.00 | 39 | 1013.9 |
| 20260906171032 | 96 | 0 | 3.5 | 10.4 | 0.00 | 0.00 | 0.00 | 39 | 1013.9 |
| 20260906170034 | 96 | 0 | 5.2 | 10.4 | 0.00 | 0.00 | 0.00 | 40 | 1014.1 |
| 20260906165529 | 96 | 0 | 6.1 | 11.3 | 0.00 | 0.00 | 0.00 | 40 | 1014.3 |
| 20260906165028 | 95 | 0 | 4.3 | 11.3 | 0.00 | 0.00 | 0.00 | 41 | 1014.4 |
| 20260906164529 | 95 | 0 | 1.7 | 7.8 | 0.00 | 0.00 | 0.00 | 42 | 1014.4 |
| 20260906163526 | 94 | 0 | 3.5 | 7.8 | 0.00 | 0.00 | 0.00 | 43 | 1014.5 |
| 20260906163026 | 93 | 0 | 2.6 | 7.0 | 0.00 | 0.00 | 0.00 | 44 | 1014.4 |
| 20260906162026 | 92 | 0 | 0.9 | 3.5 | 0.00 | 0.00 | 0.00 | 45 | 1014.5 |
| 20260906161027 | 92 | 0 | 1.7 | 3.5 | 0.00 | 0.00 | 0.00 | 45 | 1014.4 |
| 20260906160526 | 91 | 0 | 1.7 | 4.3 | 0.00 | 0.00 | 0.00 | 45 | 1014.4 |
| 20260906160024 | 91 | 0 | 1.7 | 4.3 | 0.00 | 0.00 | 0.00 | 46 | 1014.4 |
| 20260906155522 | 91 | 0 | 0.9 | 3.5 | 0.00 | 0.00 | 0.00 | 48 | 1014.4 |
| 20260906155016 | 90 | 0 | 0.9 | 2.6 | 0.00 | 0.00 | 0.00 | 50 | 1014.4 |
| 20260906154511 | 90 | 0 | 0.0 | 1.7 | 0.00 | 0.00 | 0.00 | 50 | 1014.4 |
| 20260906152953 | 89 | 0 | 0.9 | 2.6 | 0.00 | 0.00 | 0.00 | 50 | 1014.3 |
| 20260906151940 | 88 | 0 | 1.7 | 3.5 | 0.00 | 0.00 | 0.00 | 53 | 1014.1 |
| 20260906151438 | 88 | 0 | 1.7 | 4.3 | 0.00 | 0.00 | 0.00 | 53 | 1014.0 |
| 20260906150938 | 87 | 0 | 0.9 | 4.3 | 0.00 | 0.00 | 0.00 | 54 | 1014.0 |
| 20260906150439 | 87 | 0 | 0.9 | 3.5 | 0.00 | 0.00 | 0.00 | 55 | 1014.0 |
| 20260906145938 | 86 | 0 | 1.7 | 4.3 | 0.00 | 0.00 | 0.00 | 55 | 1014.0 |
| 20260906145439 | 86 | 0 | 1.7 | 5.2 | 0.00 | 0.00 | 0.00 | 56 | 1014.0 |
| 20260906144939 | 85 | 0 | 1.7 | 5.2 | 0.00 | 0.00 | 0.00 | 55 | 1014.1 |
| 20260906144437 | 85 | 0 | 0.9 | 3.5 | 0.00 | 0.00 | 0.00 | 57 | 1014.1 |
| 20260906143937 | 84 | 0 | 0.9 | 3.5 | 0.00 | 0.00 | 0.00 | 58 | 1014.1 |
| 20260906143435 | 84 | 0 | 0.9 | 3.5 | 0.00 | 0.00 | 0.00 | 60 | 1014.3 |
| 20260906142935 | 83 | 0 | 1.7 | 4.3 | 0.00 | 0.00 | 0.00 | 60 | 1014.3 |
| 20260906142433 | 83 | 0 | 2.6 | 4.3 | 0.00 | 0.00 | 0.00 | 61 | 1014.3 |
| 20260906141933 | 82 | 0 | 2.6 | 4.3 | 0.00 | 0.00 | 0.00 | 61 | 1014.3 |
| 20260906141432 | 82 | 0 | 1.7 | 4.3 | 0.00 | 0.00 | 0.00 | 62 | 1014.1 |
| 20260906140933 | 82 | 0 | 0.9 | 4.3 | 0.00 | 0.00 | 0.00 | 63 | 1014.1 |
| 20260906135931 | 80 | 0 | 1.7 | 3.5 | 0.00 | 0.00 | 0.00 | 64 | 1014.1 |
| 20260906134930 | 80 | 0 | 1.7 | 4.3 | 0.00 | 0.00 | 0.00 | 65 | 1014.1 |
| 20260906134424 | 79 | 0 | 2.6 | 4.3 | 0.00 | 0.00 | 0.00 | 66 | 1014.0 |
| 20260906133412 | 78 | 0 | 3.5 | 7.0 | 0.00 | 0.00 | 0.00 | 67 | 1014.0 |
| 20260906132906 | 77 | 0 | 3.5 | 7.0 | 0.00 | 0.00 | 0.00 | 68 | 1014.0 |
| 20260906132400 | 77 | 0 | 3.5 | 5.2 | 0.00 | 0.00 | 0.00 | 68 | 1014.0 |
| 20260906131854 | 76 | 0 | 3.5 | 7.0 | 0.00 | 0.00 | 0.00 | 69 | 1013.9 |
| 20260906131348 | 76 | 0 | 3.5 | 7.0 | 0.00 | 0.00 | 0.00 | 69 | 1013.9 |
| 20260906130855 | 75 | 0 | 3.5 | 7.0 | 0.00 | 0.00 | 0.00 | 68 | 1013.8 |
| 20260906130337 | 74 | 0 | 2.6 | 7.0 | 0.00 | 0.00 | 0.00 | 68 | 1013.7 |
| 20260906125830 | 74 | 0 | 2.6 | 5.2 | 0.00 | 0.00 | 0.00 | 67 | 1013.6 |
| 20260906125324 | 73 | 0 | 1.7 | 3.5 | 0.00 | 0.00 | 0.00 | 66 | 1013.7 |
| 20260906124818 | 73 | 0 | 0.9 | 2.6 | 0.00 | 0.00 | 0.00 | 64 | 1013.6 |
| 20260906124311 | 73 | 0 | 0.9 | 2.6 | 0.00 | 0.00 | 0.00 | 63 | 1013.5 |
| 20260906123806 | 73 | 0 | 0.9 | 1.7 | 0.00 | 0.00 | 0.00 | 62 | 1013.4 |
| 20260906123300 | 73 | 0 | 0.0 | 0.9 | 0.00 | 0.00 | 0.00 | 62 | 1013.3 |
| 20260906122754 | 73 | 0 | 0.9 | 2.6 | 0.00 | 0.00 | 0.00 | 62 | 1013.2 |
| 20260906122248 | 73 | 0 | 0.9 | 2.6 | 0.00 | 0.00 | 0.00 | 61 | 1013.2 |
| 20260906121742 | 73 | 0 | 0.0 | 2.6 | 0.00 | 0.00 | 0.00 | 61 | 1013.1 |
| 20260906121236 | 73 | 0 | 0.0 | 0.9 | 0.00 | 0.00 | 0.00 | 61 | 1013.0 |
| 20260906120730 | 73 | 0 | 0.0 | 0.9 | 0.00 | 0.00 | 0.00 | 60 | 1013.0 |
| 20260906120224 | 73 | 0 | 0.0 | 0.9 | 0.00 | 0.00 | 0.00 | 61 | 1013.0 |
| 20260906115718 | 74 | 0 | 0.0 | 1.7 | 0.00 | 0.00 | 0.00 | 60 | 1012.9 |
| 20260906115212 | 74 | 0 | 0.9 | 1.7 | 0.00 | 0.00 | 0.00 | 61 | 1012.9 |
| 20260906114706 | 74 | 0 | 0.9 | 1.7 | 0.00 | 0.00 | 0.00 | 61 | 1012.8 |
| 20260906113654 | 74 | 0 | 0.0 | 0.0 | 0.00 | 0.00 | 0.00 | 61 | 1012.7 |
| 20260906113148 | 74 | 0 | 0.0 | 0.0 | 0.00 | 0.00 | 0.00 | 60 | 1012.6 |
| 20260906112642 | 74 | 0 | 0.0 | 0.9 | 0.00 | 0.00 | 0.00 | 59 | 1012.6 |
| 20260906112136 | 74 | 0 | 0.0 | 0.9 | 0.00 | 0.00 | 0.00 | 58 | 1012.7 |
| 20260906111630 | 74 | 0 | 0.0 | 1.7 | 0.00 | 0.00 | 0.00 | 58 | 1012.7 |
| 20260906105605 | 75 | 0 | 0.0 | 1.7 | 0.00 | 0.00 | 0.00 | 57 | 1012.6 |
| 20260906105100 | 75 | 0 | 0.0 | 2.6 | 0.00 | 0.00 | 0.00 | 58 | 1012.6 |
| 20260906104553 | 75 | 0 | 0.9 | 2.6 | 0.00 | 0.00 | 0.00 | 58 | 1012.5 |
| 20260906104050 | 75 | 0 | 1.7 | 2.6 | 0.00 | 0.00 | 0.00 | 58 | 1012.4 |
| 20260906103542 | 75 | 0 | 1.7 | 3.5 | 0.00 | 0.00 | 0.00 | 58 | 1012.4 |
| 20260906103035 | 75 | 0 | 0.9 | 3.5 | 0.00 | 0.00 | 0.00 | 57 | 1012.4 |
| 20260906102542 | 75 | 0 | 0.9 | 2.6 | 0.00 | 0.00 | 0.00 | 57 | 1012.3 |
| 20260906101518 | 75 | 0 | 0.0 | 0.0 | 0.00 | 0.00 | 0.00 | 57 | 1012.3 |
| 20260906101025 | 75 | 0 | 0.0 | 0.0 | 0.00 | 0.00 | 0.00 | 58 | 1012.3 |
| 20260906100507 | 76 | 0 | 0.0 | 0.0 | 0.00 | 0.00 | 0.00 | 57 | 1012.4 |
| 20260906095959 | 76 | 0 | 0.0 | 0.0 | 0.00 | 0.00 | 0.00 | 57 | 1012.3 |
| 20260906095454 | 76 | 0 | 0.0 | 0.0 | 0.00 | 0.00 | 0.00 | 57 | 1012.2 |
| 20260906094947 | 76 | 0 | 0.0 | 0.0 | 0.00 | 0.00 | 0.00 | 56 | 1012.3 |
| 20260906093936 | 76 | 0 | 0.0 | 0.0 | 0.00 | 0.00 | 0.00 | 56 | 1012.2 |
| 20260906093442 | 76 | 0 | 0.0 | 1.7 | 0.00 | 0.00 | 0.00 | 56 | 1012.1 |
| 20260906092924 | 76 | 0 | 0.9 | 2.6 | 0.00 | 0.00 | 0.00 | 56 | 1012.2 |
| 20260906091912 | 76 | 0 | 1.7 | 2.6 | 0.00 | 0.00 | 0.00 | 55 | 1012.2 |
| 20260906091405 | 76 | 0 | 1.7 | 3.5 | 0.00 | 0.00 | 0.00 | 55 | 1012.2 |
| 20260906090900 | 77 | 0 | 1.7 | 3.5 | 0.00 | 0.00 | 0.00 | 54 | 1012.2 |
| 20260906090354 | 77 | 0 | 0.9 | 2.6 | 0.00 | 0.00 | 0.00 | 54 | 1012.1 |
| 20260906085846 | 77 | 0 | 0.9 | 1.7 | 0.00 | 0.00 | 0.00 | 53 | 1012.1 |
| 20260906085347 | 77 | 0 | 0.0 | 0.9 | 0.00 | 0.00 | 0.00 | 53 | 1012.1 |
| 20260906084847 | 77 | 155 | 0.9 | 1.7 | 0.00 | 0.00 | 0.00 | 53 | 1012.0 |
| 20260906084346 | 77 | 155 | 0.9 | 2.6 | 0.00 | 0.00 | 0.00 | 52 | 1012.0 |
| 20260906083842 | 78 | 0 | 0.9 | 3.5 | 0.00 | 0.00 | 0.00 | 53 | 1012.0 |
| 20260906082837 | 78 | 0 | 0.9 | 2.6 | 0.00 | 0.00 | 0.00 | 52 | 1012.0 |
| 20260906081833 | 78 | 0 | 0.0 | 0.0 | 0.00 | 0.00 | 0.00 | 51 | 1012.0 |
| 20260906080830 | 79 | 0 | 0.9 | 1.7 | 0.00 | 0.00 | 0.00 | 51 | 1012.0 |
| 20260906080329 | 79 | 0 | 0.9 | 1.7 | 0.00 | 0.00 | 0.00 | 51 | 1012.1 |
| 20260906075829 | 79 | 0 | 0.0 | 0.9 | 0.00 | 0.00 | 0.00 | 51 | 1012.1 |
| 20260906075330 | 79 | 0 | 0.0 | 0.0 | 0.00 | 0.00 | 0.00 | 51 | 1012.1 |
| 20260906074831 | 80 | 0 | 0.0 | 0.9 | 0.00 | 0.00 | 0.00 | 51 | 1012.1 |
| 20260906073325 | 80 | 0 | 0.9 | 2.6 | 0.00 | 0.00 | 0.00 | 51 | 1012.1 |
| 20260906072325 | 80 | 0 | 0.0 | 1.7 | 0.00 | 0.00 | 0.00 | 51 | 1012.0 |
| 20260906071825 | 80 | 0 | 0.0 | 1.7 | 0.00 | 0.00 | 0.00 | 51 | 1012.0 |
| 20260906071325 | 81 | 0 | 0.9 | 2.6 | 0.00 | 0.00 | 0.00 | 51 | 1012.1 |
| 20260906070825 | 81 | 0 | 1.7 | 3.5 | 0.00 | 0.00 | 0.00 | 51 | 1011.9 |
| 20260906065827 | 81 | 0 | 1.7 | 4.3 | 0.00 | 0.00 | 0.00 | 51 | 1011.9 |
| 20260906065321 | 81 | 0 | 1.7 | 4.3 | 0.00 | 0.00 | 0.00 | 51 | 1011.9 |
| 20260906064822 | 81 | 0 | 2.6 | 4.3 | 0.00 | 0.00 | 0.00 | 51 | 1011.9 |
| 20260906064322 | 81 | 0 | 2.6 | 4.3 | 0.00 | 0.00 | 0.00 | 51 | 1011.9 |
| 20260906063821 | 82 | 0 | 2.6 | 4.3 | 0.00 | 0.00 | 0.00 | 51 | 1012.1 |
| 20260906062821 | 82 | 0 | 2.6 | 4.3 | 0.00 | 0.00 | 0.00 | 51 | 1012.1 |
| 20260906062322 | 82 | 0 | 1.7 | 4.3 | 0.00 | 0.00 | 0.00 | 50 | 1012.1 |
| 20260906061322 | 82 | 0 | 1.7 | 4.3 | 0.00 | 0.00 | 0.00 | 50 | 1012.0 |
| 20260906060819 | 82 | 0 | 2.6 | 4.3 | 0.00 | 0.00 | 0.00 | 49 | 1012.0 |
| 20260906060319 | 82 | 0 | 2.6 | 5.2 | 0.00 | 0.00 | 0.00 | 49 | 1012.1 |
| 20260906055819 | 83 | 0 | 2.6 | 5.2 | 0.00 | 0.00 | 0.00 | 49 | 1012.1 |
| 20260906055320 | 83 | 0 | 3.5 | 5.2 | 0.00 | 0.00 | 0.00 | 49 | 1012.1 |
| 20260906054820 | 83 | 0 | 3.5 | 5.2 | 0.00 | 0.00 | 0.00 | 49 | 1012.2 |
| 20260906053817 | 83 | 0 | 3.5 | 5.2 | 0.00 | 0.00 | 0.00 | 48 | 1012.3 |
| 20260906053316 | 83 | 0 | 3.5 | 5.2 | 0.00 | 0.00 | 0.00 | 48 | 1012.3 |
| 20260906052814 | 83 | 0 | 3.5 | 5.2 | 0.00 | 0.00 | 0.00 | 48 | 1012.3 |
| 20260906052313 | 83 | 0 | 3.5 | 5.2 | 0.00 | 0.00 | 0.00 | 47 | 1012.4 |
| 20260906051812 | 83 | 0 | 2.6 | 5.2 | 0.00 | 0.00 | 0.00 | 47 | 1012.4 |
| 20260906051313 | 83 | 0 | 2.6 | 4.3 | 0.00 | 0.00 | 0.00 | 47 | 1012.5 |
| 20260906050813 | 84 | 0 | 3.5 | 5.2 | 0.00 | 0.00 | 0.00 | 46 | 1012.5 |
| 20260906045812 | 84 | 0 | 3.5 | 5.2 | 0.00 | 0.00 | 0.00 | 46 | 1012.5 |
| 20260906045309 | 84 | 0 | 3.5 | 4.3 | 0.00 | 0.00 | 0.00 | 46 | 1012.5 |
| 20260906044809 | 84 | 0 | 2.6 | 5.2 | 0.00 | 0.00 | 0.00 | 45 | 1012.6 |
| 20260906044303 | 85 | 0 | 2.6 | 5.2 | 0.00 | 0.00 | 0.00 | 45 | 1012.5 |
| 20260906043758 | 85 | 0 | 2.6 | 5.2 | 0.00 | 0.00 | 0.00 | 44 | 1012.5 |
| 20260906043252 | 85 | 0 | 2.6 | 5.2 | 0.00 | 0.00 | 0.00 | 44 | 1012.5 |
| 20260906042241 | 85 | 0 | 2.6 | 5.2 | 0.00 | 0.00 | 0.00 | 44 | 1012.4 |
| 20260906041734 | 86 | 0 | 2.6 | 5.2 | 0.00 | 0.00 | 0.00 | 44 | 1012.4 |
| 20260906041228 | 86 | 0 | 3.5 | 5.2 | 0.00 | 0.00 | 0.00 | 43 | 1012.4 |
| 20260906040723 | 86 | 0 | 3.5 | 5.2 | 0.00 | 0.00 | 0.00 | 43 | 1012.4 |
| 20260906040217 | 86 | 0 | 3.5 | 5.2 | 0.00 | 0.00 | 0.00 | 43 | 1012.3 |
| 20260906035710 | 87 | 0 | 3.5 | 5.2 | 0.00 | 0.00 | 0.00 | 42 | 1012.3 |
| 20260906034658 | 87 | 0 | 2.6 | 4.3 | 0.00 | 0.00 | 0.00 | 42 | 1012.3 |
| 20260906034152 | 87 | 0 | 3.5 | 5.2 | 0.00 | 0.00 | 0.00 | 41 | 1012.2 |
| 20260906033647 | 87 | 0 | 3.5 | 5.2 | 0.00 | 0.00 | 0.00 | 41 | 1012.3 |
| 20260906032634 | 88 | 0 | 4.3 | 7.8 | 0.00 | 0.00 | 0.00 | 41 | 1012.2 |
| 20260906032128 | 88 | 0 | 3.5 | 7.8 | 0.00 | 0.00 | 0.00 | 40 | 1012.0 |
| 20260906031623 | 88 | 0 | 3.5 | 7.0 | 0.00 | 0.00 | 0.00 | 39 | 1012.0 |
| 20260906030117 | 89 | 0 | 3.5 | 5.2 | 0.00 | 0.00 | 0.00 | 39 | 1011.7 |
| 20260906025558 | 89 | 0 | 3.5 | 5.2 | 0.00 | 0.00 | 0.00 | 38 | 1011.5 |
| 20260906025052 | 90 | 0 | 2.6 | 5.2 | 0.00 | 0.00 | 0.00 | 38 | 1011.5 |
| 20260906024547 | 90 | 0 | 2.6 | 5.2 | 0.00 | 0.00 | 0.00 | 37 | 1011.3 |
| 20260906024047 | 91 | 0 | 2.6 | 4.3 | 0.00 | 0.00 | 0.00 | 37 | 1011.3 |
| 20260906023544 | 91 | 0 | 2.6 | 4.3 | 0.00 | 0.00 | 0.00 | 37 | 1011.2 |
| 20260906023044 | 91 | 0 | 2.6 | 4.3 | 0.00 | 0.00 | 0.00 | 36 | 1011.1 |
| 20260906022543 | 92 | 0 | 3.5 | 4.3 | 0.00 | 0.00 | 0.00 | 36 | 1011.0 |
| 20260906022043 | 92 | 0 | 2.6 | 4.3 | 0.00 | 0.00 | 0.00 | 36 | 1011.0 |
| 20260906021044 | 93 | 0 | 2.6 | 4.3 | 0.00 | 0.00 | 0.00 | 34 | 1010.9 |
| 20260906020541 | 93 | 0 | 2.6 | 4.3 | 0.00 | 0.00 | 0.00 | 34 | 1010.8 |
| 20260906015537 | 94 | 0 | 2.6 | 5.2 | 0.00 | 0.00 | 0.00 | 34 | 1010.7 |
| 20260906015038 | 94 | 0 | 3.5 | 5.2 | 0.00 | 0.00 | 0.00 | 34 | 1010.6 |
| 20260906014537 | 94 | 0 | 3.5 | 5.2 | 0.00 | 0.00 | 0.00 | 33 | 1010.5 |
| 20260906014037 | 95 | 0 | 3.5 | 5.2 | 0.00 | 0.00 | 0.00 | 33 | 1010.4 |
| 20260906013537 | 95 | 0 | 3.5 | 7.0 | 0.00 | 0.00 | 0.00 | 33 | 1010.3 |
| 20260906013040 | 96 | 0 | 3.5 | 7.0 | 0.00 | 0.00 | 0.00 | 33 | 1010.2 |
| 20260906012036 | 96 | 0 | 4.3 | 7.8 | 0.00 | 0.00 | 0.00 | 32 | 1010.1 |
| 20260906011536 | 97 | 0 | 4.3 | 7.8 | 0.00 | 0.00 | 0.00 | 32 | 1010.0 |
| 20260906011031 | 97 | 0 | 5.2 | 8.7 | 0.00 | 0.00 | 0.00 | 32 | 1009.9 |
| 20260906010523 | 97 | 0 | 5.2 | 9.6 | 0.00 | 0.00 | 0.00 | 32 | 1009.9 |
| 20260906010032 | 98 | 0 | 5.2 | 9.6 | 0.00 | 0.00 | 0.00 | 31 | 1009.9 |
| 20260906005524 | 98 | 0 | 5.2 | 11.3 | 0.00 | 0.00 | 0.00 | 31 | 1010.0 |
| 20260906005023 | 98 | 0 | 6.1 | 11.3 | 0.00 | 0.00 | 0.00 | 31 | 1009.9 |
| 20260906004025 | 99 | 0 | 6.1 | 11.3 | 0.00 | 0.00 | 0.00 | 31 | 1009.8 |
| 20260906003024 | 100 | 0 | 7.0 | 12.2 | 0.00 | 0.00 | 0.00 | 30 | 1009.7 |
| 20260906002524 | 100 | 0 | 7.8 | 12.2 | 0.00 | 0.00 | 0.00 | 30 | 1009.7 |
| 20260906002024 | 100 | 0 | 7.8 | 13.9 | 0.00 | 0.00 | 0.00 | 30 | 1009.7 |
| 20260906001523 | 101 | 0 | 7.0 | 13.9 | 0.00 | 0.00 | 0.00 | 30 | 1009.6 |
| 20260906001036 | 101 | 0 | 7.0 | 12.2 | 0.00 | 0.00 | 0.00 | 29 | 1009.6 |
| 20260906000525 | 101 | 0 | 6.1 | 10.4 | 0.00 | 0.00 | 0.00 | 29 | 1009.5 |
| 20260906000021 | 101 | 0 | 7.0 | 10.4 | 0.00 | 0.00 | 0.00 | 29 | 1009.5 |
| 20260905235021 | 101 | 0 | 7.8 | 12.2 | 0.00 | 0.00 | 0.00 | 29 | 1009.4 |
| 20260905234520 | 102 | 0 | 7.8 | 12.2 | 0.00 | 0.00 | 0.00 | 29 | 1009.4 |
| 20260905234020 | 102 | 0 | 7.8 | 12.2 | 0.00 | 0.00 | 0.00 | 29 | 1009.3 |
| 20260905233019 | 102 | 0 | 7.0 | 12.2 | 0.00 | 0.00 | 0.00 | 29 | 1009.2 |
| 20260905232523 | 102 | 0 | 7.0 | 12.2 | 0.00 | 0.00 | 0.00 | 29 | 1009.3 |
| 20260905232020 | 102 | 0 | 7.0 | 12.2 | 0.00 | 0.00 | 0.00 | 28 | 1009.4 |
| 20260905231515 | 102 | 0 | 7.8 | 12.2 | 0.00 | 0.00 | 0.00 | 28 | 1009.3 |
| 20260905231015 | 102 | 0 | 7.8 | 13.9 | 0.00 | 0.00 | 0.00 | 28 | 1009.3 |
| 20260905230015 | 103 | 0 | 7.8 | 13.9 | 0.00 | 0.00 | 0.00 | 28 | 1009.3 |
| 20260905225517 | 103 | 0 | 7.0 | 13.0 | 0.00 | 0.00 | 0.00 | 28 | 1009.3 |
| 20260905225017 | 103 | 0 | 7.0 | 11.3 | 0.00 | 0.00 | 0.00 | 28 | 1009.4 |
| 20260905224015 | 103 | 0 | 7.0 | 12.2 | 0.00 | 0.00 | 0.00 | 28 | 1009.4 |
| 20260905223517 | 103 | 0 | 7.0 | 15.6 | 0.00 | 0.00 | 0.00 | 28 | 1009.5 |
| 20260905223017 | 103 | 0 | 7.0 | 15.6 | 0.00 | 0.00 | 0.00 | 28 | 1009.5 |
| 20260905222515 | 103 | 0 | 7.0 | 13.0 | 0.00 | 0.00 | 0.00 | 28 | 1009.4 |
| 20260905222016 | 103 | 0 | 5.2 | 12.2 | 0.00 | 0.00 | 0.00 | 28 | 1009.5 |
| 20260905221516 | 103 | 0 | 6.1 | 13.0 | 0.00 | 0.00 | 0.00 | 28 | 1009.5 |
| 20260905221015 | 103 | 0 | 7.8 | 14.8 | 0.00 | 0.00 | 0.00 | 28 | 1009.5 |
| 20260905220517 | 103 | 0 | 7.8 | 14.8 | 0.00 | 0.00 | 0.00 | 28 | 1009.6 |
| 20260905220017 | 103 | 0 | 5.2 | 11.3 | 0.00 | 0.00 | 0.00 | 28 | 1009.6 |